Theta_e
322 322 322 323 322 322 322 323 323 323 324 324 324 323 323 323 322 319 305 315 320 347 346 328 324 324 324 322 322 321 307 307 311 313 309 308 310 322 327 328 332 335 335 339 344
321 322 322 323 324 322 322 323 323 323 323 323 324 323 323 322 318 311 327 342 346 351 320 318 322 321 316 313 315 311 305 310 310 308 306 310 310 323 323 324 329 331 338 341 346
321 321 322 321 322 323 322 323 323 322 323 323 323 323 323 322 318 317 344 349 349 345 317 317 316 315 310 308 309 308 308 312 309 309 310 305 311 320 329 325 328 328 334 338 343
320 320 320 320 321 322 322 322 322 321 322 322 322 323 323 319 309 323 353 350 349 322 317 316 316 311 306 306 310 305 312 312 308 308 309 307 308 312 322 328 333 334 337 338 339
319 319 319 320 320 320 321 322 321 321 324 322 322 323 316 309 311 337 350 347 324 318 314 315 317 313 306 307 309 308 309 309 308 309 309 314 312 313 316 332 335 336 337 337 337
318 319 319 319 319 320 320 321 321 321 324 322 322 323 314 310 332 336 324 321 315 316 315 316 317 314 309 308 308 312 310 308 308 311 312 310 312 314 325 334 333 333 334 336 336
318 318 318 318 318 319 319 319 320 322 323 323 323 322 319 312 332 327 317 313 314 314 316 320 320 310 308 307 315 314 306 307 308 309 308 313 309 311 327 333 331 331 332 334 335
317 317 317 317 317 318 318 317 319 322 323 323 324 318 312 330 327 323 317 314 315 313 316 320 318 311 307 312 313 308 301 298 307 309 309 311 304 318 323 326 328 330 332 334 336
316 316 316 316 316 316 316 316 319 325 325 324 316 315 314 327 319 319 319 317 316 315 315 322 314 309 311 305 300 300 298 299 304 309 309 309 306 319 323 329 329 331 334 336 339
315 315 315 315 315 315 314 318 324 324 323 325 323 312 318 315 318 320 318 320 317 315 314 313 306 302 301 299 294 297 297 298 302 306 306 307 307 316 323 327 327 329 332 334 336
314 314 314 314 314 314 310 313 307 309 312 307 311 316 321 324 320 318 319 316 315 312 305 309 302 298 303 303 305 304 301 301 305 308 304 305 308 315 321 326 326 327 328 330 333
314 314 314 313 313 312 309 310 308 311 304 314 318 318 320 318 311 316 318 310 311 305 306 303 300 308 309 308 306 304 300 300 305 309 304 303 305 311 321 324 325 326 327 328 330
313 313 313 312 311 312 314 315 316 315 304 310 312 312 313 312 310 310 315 311 308 305 304 300 304 311 310 306 304 300 300 301 302 305 304 303 300 305 313 320 324 326 327 328 330
312 312 312 310 306 309 314 316 316 312 298 305 308 313 313 312 308 316 317 313 309 305 306 303 308 309 307 306 303 295 305 305 303 299 295 302 291 300 308 314 320 321 323 324 327
311 311 311 310 300 308 317 317 317 310 293 312 307 314 311 309 309 310 317 310 306 306 303 302 306 305 305 306 307 303 307 304 304 298 294 297 293 295 305 308 314 318 322 324 326
311 310 310 307 303 310 313 311 311 299 293 306 308 307 306 305 309 310 310 311 311 306 305 305 310 308 307 310 308 309 304 302 299 294 291 296 295 297 302 309 312 316 322 324 326
309 309 307 309 298 305 306 310 298 294 308 302 302 303 302 303 304 307 305 302 299 298 295 303 304 306 309 304 307 302 296 290 291 291 291 297 296 299 307 314 315 315 319 322 324
308 308 308 309 305 306 308 303 294 304 306 308 304 301 300 303 303 306 303 300 303 300 296 294 296 304 309 304 301 300 296 291 287 288 292 297 294 302 311 314 316 318 319 323 323
307 302 303 309 311 308 304 295 297 304 307 306 303 299 298 302 303 303 301 300 303 302 297 295 299 308 310 309 306 300 296 299 293 291 290 294 301 308 312 312 313 312 321 320 319
299 301 304 308 314 307 299 295 299 306 306 306 300 302 297 301 298 298 300 304 305 306 303 301 295 303 309 309 307 302 303 294 292 287 285 292 297 298 304 308 310 311 315 315 317
300 300 309 310 312 301 294 295 302 308 307 305 301 300 299 300 301 299 299 306 308 306 306 302 297 299 305 300 300 301 297 296 295 291 288 287 295 305 306 308 307 309 314 316 317
296 296 310 310 299 296 295 300 304 305 306 306 304 303 300 301 300 301 303 306 311 307 302 302 296 295 299 305 308 303 300 297 293 291 291 292 293 307 307 307 315 315 317 316 317
290 295 309 309 295 294 296 301 304 304 305 303 303 305 302 299 296 304 307 309 312 308 303 303 296 292 295 298 301 300 302 299 296 294 292 290 293 306 306 313 316 316 317 317 317
294 295 303 301 299 298 294 297 298 308 305 305 303 305 302 300 299 299 304 309 309 308 321 309 296 295 292 294 298 297 300 300 297 292 292 294 296 299 308 312 314 315 316 316 320
298 300 300 295 299 298 299 303 303 302 305 304 299 302 299 295 298 298 303 304 308 315 305 301 295 297 297 300 300 299 301 300 294 294 294 295 296 302 309 311 313 315 316 318 318
297 296 298 297 299 296 296 297 303 302 301 301 300 303 303 299 300 298 300 298 300 302 298 298 294 297 294 301 301 300 302 302 299 299 296 296 295 311 312 312 311 313 313 317 317
299 301 297 297 296 294 294 299 301 302 306 307 306 304 304 305 306 304 304 302 303 300 298 297 297 294 291 299 298 295 298 300 300 301 298 294 302 310 309 313 314 315 317 316 317
Wind_Speed
19 19 19 18 19 18 17 16 15 13 12 10 8 6 6 8 12 2 6 10 7 9 4 2 5 4 3 5 7 7 1 5 10 12 8 6 8 4 5 15 4 2 14 26 25
20 19 19 20 19 20 18 17 14 12 11 9 6 5 5 6 2 7 11 9 9 12 4 5 3 2 4 4 3 6 3 7 6 4 3 6 7 12 8 8 4 16 19 23 23
20 20 19 20 20 19 19 16 14 13 10 8 5 4 4 3 1 7 9 10 8 9 2 2 4 2 4 1 4 4 7 9 3 4 3 3 7 6 16 8 19 26 26 24 22
21 21 20 21 21 19 18 17 15 13 10 6 4 3 2 2 3 2 6 12 8 5 1 3 3 2 3 4 4 4 8 3 4 2 3 3 2 8 10 10 21 29 29 24 23
22 22 21 20 20 20 19 17 15 11 9 3 4 4 1 1 8 5 11 10 7 6 5 3 1 1 4 4 6 5 2 1 1 5 6 7 4 4 6 13 19 23 24 23 19
22 21 21 20 19 19 18 16 14 11 2 3 6 6 1 2 4 11 10 7 6 6 5 6 7 6 6 5 2 6 7 4 2 4 5 7 2 12 6 19 21 22 21 18 18
23 23 22 21 20 20 19 16 13 10 3 5 7 3 0 9 8 10 11 8 6 6 4 4 4 2 2 10 3 6 6 8 6 4 4 9 4 7 16 19 22 20 18 18 13
24 24 23 22 20 20 20 17 12 5 5 6 6 2 6 3 8 8 5 3 4 6 5 8 5 7 3 3 9 5 4 2 9 7 3 10 2 7 11 18 14 18 16 13 10
25 25 25 24 22 20 21 20 6 4 5 7 1 1 7 3 6 7 8 4 4 6 5 11 0 1 6 3 6 5 5 6 6 9 7 5 7 4 8 16 15 18 12 9 2
25 26 26 26 23 20 22 6 9 8 3 5 5 4 5 5 5 5 7 8 6 4 5 4 5 2 3 5 4 5 4 1 6 5 6 6 8 5 9 17 13 13 15 15 14
26 27 28 27 25 19 10 3 3 2 2 8 5 4 1 4 5 6 7 3 1 3 6 1 5 6 11 9 9 7 2 3 3 2 6 8 12 11 8 14 13 11 13 14 16
26 27 28 29 28 23 3 1 5 8 8 11 14 8 12 4 5 7 5 4 1 6 2 6 7 15 8 9 7 4 5 6 3 1 3 7 5 6 10 12 16 16 12 12 11
26 26 28 31 32 2 3 7 7 5 1 9 7 6 6 8 6 8 12 6 3 3 6 7 12 4 9 3 5 4 7 3 1 4 5 5 4 7 2 5 10 11 12 9 13
26 25 26 33 4 6 5 6 8 3 5 8 5 7 5 5 4 9 12 7 3 9 6 7 9 6 1 3 7 4 3 5 5 5 2 5 5 4 8 8 9 10 11 10 10
26 25 22 12 6 4 6 12 10 6 2 3 4 3 9 9 3 3 9 3 7 9 4 8 2 3 6 3 5 4 2 3 2 4 4 2 4 6 7 7 12 11 11 10 11
28 24 19 2 2 11 9 12 5 7 6 4 7 7 8 3 3 3 5 1 3 4 3 8 4 6 6 3 4 0 6 9 7 4 4 3 6 4 13 17 12 11 13 13 10
31 28 8 3 7 2 5 5 6 3 4 5 7 7 7 7 3 7 7 5 4 3 4 7 4 3 4 4 8 8 8 5 7 7 7 6 4 11 13 22 19 16 12 11 11
34 28 6 8 5 3 4 6 3 4 5 4 5 4 10 8 7 10 7 6 5 5 2 3 9 3 3 6 6 3 8 7 2 1 7 6 6 8 7 10 13 13 13 11 8
28 4 4 8 9 3 6 3 8 6 3 7 5 7 4 6 6 7 9 10 9 11 9 6 2 1 6 4 8 3 2 6 6 2 4 3 6 10 13 14 9 10 15 8 8
5 5 6 4 11 6 6 7 5 4 6 5 4 3 0 3 2 3 9 9 9 11 7 8 4 1 2 7 2 7 4 4 5 2 3 4 4 6 5 10 6 9 10 8 7
3 5 6 8 6 6 4 8 5 8 6 2 2 2 2 2 1 4 5 3 5 3 9 8 6 5 5 4 7 4 2 6 6 5 5 0 7 6 10 9 10 8 9 10 8
5 3 3 3 4 1 3 5 5 7 8 7 2 1 3 3 3 3 2 2 5 6 5 1 7 4 6 3 4 6 8 7 7 5 2 5 8 4 8 10 14 9 7 7 7
4 6 7 5 3 3 6 6 4 11 9 6 2 3 3 0 1 1 3 3 6 6 5 2 2 3 8 8 8 6 4 3 4 4 5 6 7 2 4 9 5 11 8 7 8
3 5 6 6 2 3 4 7 5 7 8 4 4 4 6 5 1 3 1 2 3 4 4 9 4 7 8 6 3 1 4 3 5 3 3 7 7 3 3 9 7 7 7 7 9
2 4 1 5 5 5 2 4 6 4 6 4 2 4 5 2 6 5 7 2 4 4 4 7 5 5 4 4 2 3 3 0 2 5 5 9 8 8 8 8 7 7 7 9 8
2 3 6 4 5 6 3 3 3 5 5 7 1 3 9 6 5 1 4 3 5 2 3 4 3 3 1 3 6 3 5 2 2 3 4 7 7 9 6 6 5 7 7 8 7
4 5 3 6 6 4 4 7 9 8 3 4 2 8 9 3 2 4 4 4 2 5 2 3 5 4 3 2 4 5 3 2 4 5 7 7 9 7 7 9 8 6 9 8 9
Wind_Direction
349 346 341 340 343 342 334 328 322 313 304 299 299 303 316 321 304 186 246 220 181 172 187 234 211 249 118 231 193 143 81 239 250 245 247 326 41 92 54 131 202 171 154 152 152
342 339 338 337 335 341 336 330 321 315 305 294 286 286 304 330 275 239 240 221 214 155 201 220 256 226 255 235 192 135 172 244 220 197 50 351 37 137 122 162 123 102 125 136 134
340 338 338 337 336 335 337 331 326 320 310 294 274 258 279 305 276 246 192 183 164 170 264 283 309 288 230 192 215 208 215 222 262 125 68 16 50 102 127 138 150 140 150 143 142
340 338 339 338 335 334 334 332 328 322 311 289 248 234 279 220 150 353 141 150 147 162 225 262 292 246 313 320 250 288 244 49 297 86 91 128 172 134 141 188 158 152 157 154 145
339 337 337 337 333 330 331 332 328 321 306 247 197 189 226 55 251 132 114 129 131 152 204 190 250 203 248 266 323 208 330 354 109 124 109 97 109 131 84 141 147 148 157 161 148
337 336 335 335 332 328 328 331 328 323 19 167 165 155 173 286 127 142 131 143 166 175 209 186 212 201 272 273 341 313 305 304 24 233 137 120 179 82 103 135 145 156 162 165 168
337 334 333 334 332 327 325 327 327 319 98 149 163 231 304 235 150 159 149 182 183 180 187 241 252 213 292 325 348 308 336 340 295 239 125 128 50 94 140 148 151 166 165 167 174
336 334 332 332 332 328 321 322 313 292 131 147 166 279 248 220 135 153 189 184 232 219 216 248 255 239 160 306 336 315 46 16 278 172 200 105 123 157 132 129 151 158 167 172 175
336 333 331 330 330 329 318 318 281 173 142 147 171 21 273 50 173 210 153 203 217 241 247 266 243 209 9 49 348 347 235 182 285 186 137 100 152 219 120 103 103 117 105 97 51
335 332 329 328 328 330 323 297 134 119 189 214 253 332 268 218 179 206 199 196 193 217 289 228 49 26 5 77 251 281 302 114 172 203 96 121 132 186 142 119 121 106 103 97 80
335 332 328 326 325 326 341 103 19 19 230 201 197 261 204 242 111 213 223 199 266 137 183 267 68 240 242 199 222 255 30 43 241 247 104 169 148 172 145 118 117 113 109 108 102
334 331 328 325 322 324 172 28 200 194 306 231 240 240 262 261 145 222 133 155 130 231 110 12 231 246 243 240 201 354 24 338 26 306 114 164 179 152 151 146 142 135 128 126 121
332 331 329 324 320 299 228 239 298 104 12 286 213 201 215 153 185 218 151 189 208 269 231 174 246 268 248 324 55 4 84 60 81 313 8 54 29 139 179 117 140 133 131 124 126
331 329 332 327 5 328 285 299 343 82 50 276 196 249 162 148 269 189 185 149 225 221 237 220 259 184 103 30 113 62 335 32 19 70 237 87 261 247 155 151 152 146 143 139 130
326 328 329 324 300 305 276 339 332 57 14 182 189 183 154 155 215 235 164 96 230 258 36 263 261 171 87 149 114 202 4 1 342 335 38 317 67 270 137 154 165 164 152 156 149
323 323 329 123 235 243 325 310 50 48 259 228 166 156 122 230 273 108 154 279 174 240 236 220 263 151 167 119 101 84 32 15 33 79 358 234 135 261 186 173 170 172 163 156 150
322 315 297 249 229 52 325 35 53 154 302 215 180 138 153 193 211 171 181 196 161 45 327 332 297 268 126 73 20 73 50 353 9 12 228 319 123 229 200 175 163 154 159 159 164
323 312 207 210 242 322 42 58 190 243 253 271 157 114 169 174 231 188 151 196 264 130 101 196 323 185 193 140 158 97 136 145 193 281 271 327 322 294 146 127 133 159 163 160 167
321 320 260 249 189 114 77 103 211 223 275 341 79 138 255 240 172 149 189 196 211 167 168 151 324 79 118 125 122 291 46 181 116 354 30 306 335 27 108 133 144 136 147 148 125
326 335 264 247 139 79 81 233 245 272 342 330 99 113 174 14 139 172 183 210 225 183 149 198 132 297 131 67 18 137 174 35 7 139 260 312 271 196 175 161 136 130 138 118 126
355 359 260 138 87 54 166 234 289 281 329 236 105 47 104 85 143 310 230 316 204 154 140 151 114 270 91 161 187 7 14 69 115 128 155 343 280 213 194 179 154 147 141 146 140
349 346 254 63 93 147 188 217 285 289 339 296 132 180 204 30 355 332 330 346 337 134 99 37 129 145 201 226 220 179 191 133 127 243 186 147 260 234 195 166 149 140 135 146 136
342 273 306 104 177 273 294 291 273 283 266 245 27 23 358 11 354 243 138 27 44 73 147 190 26 64 355 356 3 56 24 96 92 62 189 138 265 84 156 104 125 143 150 148 117
357 343 320 17 65 129 345 279 274 293 261 143 139 80 47 7 0 270 107 23 91 101 118 85 107 144 178 194 177 306 350 12 117 99 196 206 247 257 91 126 133 138 146 108 119
145 274 20 323 330 335 272 286 306 327 340 43 64 167 180 208 350 21 4 14 358 189 102 107 146 136 175 208 219 201 249 35 158 211 159 259 206 180 176 145 145 144 139 127 137
44 24 341 289 302 338 340 310 287 319 9 321 300 305 79 110 140 83 14 70 256 341 61 5 192 112 84 320 348 300 308 353 326 259 236 225 259 170 179 128 125 156 139 138 150
319 333 102 289 337 12 27 317 314 318 338 65 17 91 64 93 177 204 202 235 272 143 88 81 109 81 244 51 32 336 222 296 279 259 213 264 202 174 157 151 159 130 136 153 175